Regional Weather Roundup
Issued by NWS

Home | Current Version | Previous Version | Text Only | Print | Product List | Glossary On
Versions: 1 2 3 4 5 6 7 8 9 10 11 12 13 14 15 16 17 18 19 20 21 22 23 24 25 26 27 28 29 30 31 32 33 34 35 36 37 38 39 40 41 42 43 44 45 46 47 48 49 50
000
ASUS46 KSEW 060010
RWRWA

WASHINGTON REGIONAL WEATHER ROUNDUP
NATIONAL WEATHER SERVICE SEATTLE WA
500 PM PDT TUE MAY 05 2015

NOTE:"FAIR" INDICATES FEW OR NO CLOUDS BELOW 12,000 FEET WITH NO
SIGNIFICANT WEATHER AND/OR OBSTRUCTIONS TO VISIBILITY.

WAZ505-507>509-060100-
SEATTLE, TACOMA, EVERETT, AND VICINITY

CITY           SKY/WX    TMP DP  RH WIND       PRES   REMARKS
EVERETT        LGT RAIN  49  41  74 NE7       30.07F
6HR MIN TEMP:  47; 6HR MAX TEMP:  56; 6HR PCP:  0.07;

BOEING FIELD   CLOUDY    58  41  53 VRB7      30.06R
6HR MIN TEMP:  56; 6HR MAX TEMP:  62;

RENTON         CLOUDY    60  36  40 S10G20    30.05S
6HR MIN TEMP:  54; 6HR MAX TEMP:  61;

SEATAC AIRPORT CLOUDY    57  40  52 SW12      30.05F
6HR MIN TEMP:  54; 6HR MAX TEMP:  58;

JBLM-MCCHORD   NOT AVBL
PUYALLUP       DRIZZLE   48  46  93 VRB3      30.08R
BREMERTON      PTSUNNY   55  45  67 NE17G23   30.07R
6HR MIN TEMP:  54; 6HR MAX TEMP:  61;

JBLM-FT LEWIS  PTSUNNY   54  43  66 S7        30.05F
TACOMA NARROWS PTSUNNY   56  37  49 SW13G22   30.05F
6HR MIN TEMP:  48; 6HR MAX TEMP:  58; 6HR PCP:  0.02;

$$

WAZ001-503-506-510-514-515-060100-
NORTH INTERIOR

CITY           SKY/WX    TMP DP  RH WIND       PRES   REMARKS
BELLINGHAM     PTSUNNY   56  41  57 S8        30.04F
6HR MIN TEMP:  49; 6HR MAX TEMP:  56; 6HR PCP:  0.06;

FRIDAY HARBOR  CLOUDY    54  37  52 CALM      30.06S
6HR MIN TEMP:  50; 6HR MAX TEMP:  58;

EASTSOUND      PTSUNNY   57  37  47 SW7       30.03S
PORT ANGELES   CLOUDY    51  41  68 NW9       30.07R
6HR MIN TEMP:  50; 6HR MAX TEMP:  56; 6HR PCP: TRACE;

NAS WHIDBEY    PTSUNNY   58  39  49 SW14      30.07S
6HR MIN TEMP:  52; 6HR MAX TEMP:  59;

ARLINGTON      PTSUNNY   52  39  62 SE13      30.08F
6HR MIN TEMP:  45; 6HR MAX TEMP:  55;

BURLINGTON     SUNNY     55  39  54 VRB6G12   30.06R
$$

WAZ020-022-039-040-504-511-512-060100-
SOUTHWEST INTERIOR

CITY           SKY/WX    TMP DP  RH WIND       PRES   REMARKS
SHELTON        PTSUNNY   55  41  59 SW18G25   30.04F
6HR MIN TEMP:  48; 6HR MAX TEMP:  57; 6HR PCP: TRACE;

OLYMPIA        PTSUNNY   58  39  49 SW8       30.06F
6HR MIN TEMP:  48; 6HR MAX TEMP:  58; 6HR PCP:  0.11;

CHEHALIS       MOCLDY    55  43  62 SW7G16    30.07F
KELSO          PTSUNNY   57  41  54 NW7       30.11F
6HR MIN TEMP:  52; 6HR MAX TEMP:  61;

VANCOUVER      PTSUNNY   61  39  44 N7        30.06F
6HR MIN TEMP:  54; 6HR MAX TEMP:  64; 6HR PCP:  0.03;

SCAPPOOSE, OR  LGT RAIN  59  38  45 NW13      30.06S
6HR MIN TEMP:  53; 6HR MAX TEMP:  62; 6HR PCP: TRACE;

PORTLAND, OR   MOSUNNY   61  41  47 N8        30.06S
6HR MIN TEMP:  54; 6HR MAX TEMP:  65; 6HR PCP: TRACE;

$$

WAZ021-516-517-060100-
WASHINGTON COAST

CITY           SKY/WX    TMP DP  RH WIND       PRES   REMARKS
FORKS          LGT RAIN  54  44  69 W10       30.07F
6HR MIN TEMP:  51; 6HR MAX TEMP:  57; 6HR PCP: TRACE;

HOQUIAM        SUNNY     55  42  61 SW16      30.09S
6HR MIN TEMP:  54; 6HR MAX TEMP:  58;

ASTORIA, OR    MOSUNNY   57  43  59 W15G21    30.10F
6HR MIN TEMP:  54; 6HR MAX TEMP:  59;

$$

WAZ019-023-024-040-518-519-060100-
CASCADE MOUNTAINS AND COLUMBIA GORGE

CITY           SKY/WX    TMP DP  RH WIND       PRES   REMARKS
TROUTDALE, OR  PTSUNNY   60  43  53 VRB7      30.04F
6HR MIN TEMP:  52; 6HR MAX TEMP:  62; 6HR PCP:  0.11;

THE DALLES, OR SUNNY     65  37  35 NW17      30.00F
6HR MIN TEMP:  59; 6HR MAX TEMP:  65;

$$

WAZ026-027-041>044-520-521-060100-
EAST SLOPES

CITY           SKY/WX    TMP DP  RH WIND       PRES   REMARKS
OMAK           CLOUDY    53  35  50 N21G30    29.92R
6HR MIN TEMP:  47; 6HR MAX TEMP:  63; 6HR PCP:  0.04;

WENATCHEE      SUNNY     63  25  23 NW17G24   29.92S
6HR MIN TEMP:  60; 6HR MAX TEMP:  67;

ELLENSBURG     MOSUNNY   58  32  37 NW25G33   29.96S
6HR MIN TEMP:  56; 6HR MAX TEMP:  61;

YAKIMA         PTSUNNY   65  26  23 W21       29.95S
6HR MIN TEMP:  62; 6HR MAX TEMP:  68;

$$

WAZ028-034-035-060100-
COLUMBIA BASIN

CITY           SKY/WX    TMP DP  RH WIND       PRES   REMARKS
EPHRATA        PTSUNNY   66  18  15 W13G21    29.89F
6HR MIN TEMP:  61; 6HR MAX TEMP:  67;

MOSES LAKE     SUNNY     65  20  17 SW18G28   29.91F
6HR MIN TEMP:  59; 6HR MAX TEMP:  68;

PASCO          MOSUNNY   69  20  15 W12       29.92F
6HR MIN TEMP:  63; 6HR MAX TEMP:  71;

HERMISTON, OR  SUNNY     68  28  22 W15G22    29.94F
$$

WAZ036>038-060100-
NORTHEAST WASHINGTON

CITY           SKY/WX    TMP DP  RH WIND       PRES   REMARKS
SPOKANE GEIGER PTSUNNY   59  23  25 SW21      29.90F
6HR MIN TEMP:  54; 6HR MAX TEMP:  60;

SPOKANE FELTS  PTSUNNY   62  25  24 SW18      29.91F
6HR MIN TEMP:  56; 6HR MAX TEMP:  63;

FAIRCHILD AFB  NOT AVBL
COEURDALENE,ID MOSUNNY   57  25  28 S17       29.92F
6HR MIN TEMP:  52; 6HR MAX TEMP:  61;

DEER PARK      MOSUNNY   61  24  24 SW17      29.90F
6HR MIN TEMP:  55; 6HR MAX TEMP:  61;

$$

WAZ029>033-060100-
SOUTHEAST WASHINGTON

CITY           SKY/WX    TMP DP  RH WIND       PRES   REMARKS
PULLMAN        SUNNY     58  28  32 W17G23    29.95F
6HR MIN TEMP:  53; 6HR MAX TEMP:  59;

LEWISTON, ID   SUNNY     64  25  22 NW17G24   29.91F
6HR MIN TEMP:  61; 6HR MAX TEMP:  68;

WALLA WALLA    SUNNY     66  26  22 SW10      29.94F
6HR MIN TEMP:  59; 6HR MAX TEMP:  66;

PENDLETON, OR  SUNNY     62  25  24 W15G21    29.95F
6HR MIN TEMP:  56; 6HR MAX TEMP:  64;

$$


USA.gov is the U.S. government's official web portal to all federal, state and local government web resources and services.